Probability
0 0 0 0 0 0 0 0 0 0 0 1 3 5 4 2 1 0 1 2 2 3 3 3 3 3 3 3 1 0 1 2 3 2 2 2 1 0 0 0 0 0 0
0 0 0 0 0 0 0 0 0 0 0 0 2 3 3 1 0 1 2 3 3 3 3 3 3 3 2 1 0 0 0 1 2 1 1 1 0 0 0 0 0 0 0
0 0 0 0 0 0 0 0 0 0 0 0 0 1 1 1 0 1 3 3 4 4 4 4 3 2 1 0 0 0 0 0 0 0 0 0 0 0 0 0 0 0 0
0 0 0 0 0 0 0 0 0 0 0 0 0 0 0 1 1 3 4 4 5 5 4 3 2 1 0 0 0 0 0 0 0 0 0 0 0 0 0 0 0 0 0
0 0 0 0 0 0 0 0 0 0 0 0 0 1 1 1 1 3 5 5 5 4 4 3 1 0 0 0 0 0 0 0 0 0 0 0 1 1 1 0 0 0 0
0 0 0 0 0 0 0 0 0 1 1 0 1 2 1 0 0 2 3 3 2 2 3 2 1 0 0 0 0 0 0 0 0 0 0 0 1 2 2 1 0 0 0
1 1 1 1 1 1 0 0 0 1 2 1 1 2 2 1 1 1 1 1 1 2 2 1 0 0 0 0 0 0 0 0 0 0 0 0 1 3 3 1 0 0 0
2 3 3 2 3 4 3 1 1 2 3 2 1 2 2 2 2 2 2 2 3 3 2 1 0 0 0 1 1 0 0 0 0 0 0 1 2 4 4 2 0 0 0
2 3 3 3 5 7 6 4 3 3 3 2 1 1 2 2 3 3 3 3 2 2 1 0 0 0 0 1 1 0 0 0 0 0 0 1 3 4 5 4 1 0 0
1 1 1 1 3 5 6 7 7 6 6 5 4 4 5 5 4 4 2 1 1 1 0 0 0 0 0 1 1 0 0 0 0 0 0 1 3 5 5 4 1 0 0
1 1 1 1 1 3 5 8 9 10 10 10 8 8 8 6 4 3 2 1 0 0 0 0 0 0 0 0 0 0 0 0 0 0 0 2 4 5 4 3 1 0 0
2 2 3 3 3 3 4 6 7 9 10 10 9 8 7 4 2 1 1 2 1 1 0 1 1 0 0 0 0 0 0 0 0 0 1 4 7 6 4 2 1 0 0
3 3 4 5 6 5 4 4 4 6 7 8 7 6 4 3 2 1 1 2 2 1 1 2 2 1 0 0 0 1 0 0 0 0 3 7 9 6 3 2 1 0 0
1 3 6 8 8 7 6 5 4 4 5 6 6 6 5 4 3 1 1 1 1 1 0 1 1 1 0 0 1 2 1 0 0 1 4 8 8 6 3 1 0 0 0
1 3 7 11 11 10 8 6 4 5 6 6 7 8 6 3 2 2 1 1 0 0 0 0 0 1 1 1 1 1 1 1 1 2 3 6 8 6 4 3 2 1 1
3 5 9 12 13 12 10 7 5 4 6 7 9 10 6 2 1 2 2 1 0 0 0 0 0 1 2 2 1 0 0 1 2 2 3 6 7 8 8 7 5 3 2
8 10 12 12 13 15 13 10 7 5 5 7 8 8 5 2 0 1 2 1 0 0 0 0 0 2 3 2 1 1 2 3 4 5 6 7 7 10 12 12 10 7 5
14 17 16 13 13 15 15 13 10 8 6 5 6 5 3 1 0 0 1 1 1 1 1 0 0 1 2 2 2 3 4 5 6 7 8 8 9 11 13 15 15 12 11
17 21 21 17 15 15 15 15 13 10 8 6 5 4 3 1 0 0 1 2 2 2 1 0 0 0 1 2 2 3 5 6 7 7 7 8 9 11 12 15 15 15 15
18 21 22 19 17 17 17 17 15 12 10 8 7 7 6 4 3 2 1 1 1 1 1 0 0 0 1 2 2 2 3 4 6 6 6 7 9 10 11 13 14 14 14
17 19 21 19 18 20 21 22 19 15 11 9 8 10 10 9 7 4 2 1 0 0 0 0 0 0 1 2 2 3 3 4 5 6 6 7 9 9 10 13 16 15 14
17 18 20 20 19 20 23 23 20 16 11 8 8 12 13 12 9 5 2 1 1 1 2 2 3 3 2 2 3 4 5 5 5 4 6 8 9 9 9 12 15 18 17
20 20 21 22 21 21 21 21 19 16 11 8 11 16 17 13 9 6 3 3 3 4 5 6 7 7 6 4 4 6 7 7 7 6 7 8 10 10 10 10 13 17 19
23 24 26 27 26 23 22 21 19 16 11 11 16 21 21 15 10 7 6 5 5 5 6 8 9 9 7 6 6 7 9 10 12 10 9 7 8 10 9 9 11 16 19
22 26 33 35 31 27 25 23 21 17 14 14 19 24 24 18 12 10 9 8 7 6 6 7 9 9 8 7 8 9 10 13 14 13 9 7 7 8 8 8 11 15 18
21 26 35 41 36 30 27 24 22 20 18 17 21 23 23 19 15 14 12 10 8 7 6 7 8 8 8 9 9 10 12 13 13 12 9 7 7 8 8 8 11 15 17
Wind_Speed
7 10 12 13 13 13 14 14 14 15 15 15 16 16 16 17 17 17 17 17 17 17 17 16 16 16 16 16 16 15 15 15 14 14 15 14 13 11 10 10 10 9 13
9 10 12 13 13 14 13 14 14 14 15 15 15 15 15 16 16 16 16 16 16 16 16 16 16 16 15 15 14 14 13 13 13 14 15 13 12 10 9 9 10 8 11
9 9 11 12 12 13 13 13 14 14 15 15 15 15 15 15 15 16 16 16 15 16 16 15 15 15 14 13 12 12 11 11 11 13 13 9 9 10 10 11 12 11 10
10 9 11 12 12 13 13 13 14 14 14 14 14 14 14 14 14 15 15 15 14 14 14 14 14 13 13 12 10 9 9 8 8 9 6 7 8 11 11 11 10 10 10
11 11 12 13 12 12 13 13 13 13 13 13 13 13 13 14 14 14 14 13 13 13 13 13 12 12 11 10 8 7 5 4 4 4 5 7 7 11 11 10 10 9 8
12 13 13 13 12 12 13 12 12 12 12 12 13 12 12 13 13 13 12 12 12 12 11 11 11 10 9 8 6 5 3 2 2 3 5 7 8 10 11 10 9 9 8
14 14 13 13 13 12 12 12 11 11 11 12 12 12 11 11 12 12 11 11 10 10 10 10 9 9 8 7 5 3 1 1 2 3 5 7 8 10 10 9 9 8 8
13 14 13 14 13 13 12 12 11 11 11 11 11 10 10 10 10 10 10 9 9 9 8 8 8 7 6 5 3 1 1 2 2 5 6 7 10 10 9 9 8 7 7
12 12 12 11 11 12 13 12 11 11 10 9 9 9 9 9 9 9 8 8 8 7 7 6 6 6 5 3 2 2 2 3 1 2 7 6 9 10 9 8 7 7 6
10 10 11 10 9 9 10 11 11 10 9 8 7 7 7 7 8 8 8 7 7 7 6 6 5 5 4 4 4 4 4 3 2 3 5 7 10 9 9 8 7 6 6
9 8 9 9 7 8 9 10 10 9 7 7 6 6 4 3 4 6 8 8 7 6 5 5 5 5 5 6 7 6 5 3 2 3 5 10 11 9 8 7 6 6 5
8 7 7 7 6 6 6 6 5 5 5 3 3 3 2 2 2 6 8 7 6 5 5 6 7 7 6 4 6 7 3 3 2 4 6 11 10 9 8 7 6 5 5
6 7 7 6 4 5 4 4 2 3 3 3 3 2 2 2 2 4 3 4 4 5 4 5 6 4 4 3 3 4 3 1 2 4 7 11 10 9 8 6 5 5 5
6 7 7 6 4 4 3 2 3 3 2 2 2 2 2 1 1 2 1 1 2 1 1 1 2 2 1 1 1 2 2 1 3 4 6 11 9 8 7 6 5 5 5
6 7 7 6 5 3 2 1 2 3 2 3 2 2 2 1 2 1 1 0 0 1 1 0 0 0 0 0 0 1 1 2 3 4 5 10 10 8 7 6 6 5 5
6 7 6 5 5 3 2 1 1 2 2 3 2 3 2 2 2 1 1 1 1 1 1 0 0 0 0 0 1 1 1 1 2 3 5 7 9 8 7 6 6 5 5
7 7 5 6 5 3 2 0 1 1 3 3 3 3 2 2 2 1 1 1 1 1 1 0 0 0 1 1 1 1 1 1 1 2 3 4 5 7 7 7 6 5 5
7 6 4 5 6 4 2 1 1 1 2 2 2 2 2 1 1 1 1 1 1 1 0 0 0 1 1 1 0 1 1 2 2 2 2 3 3 4 6 7 6 5 5
8 6 4 4 5 4 3 2 1 2 2 2 2 2 1 0 1 1 1 1 1 1 1 1 2 1 1 1 1 1 1 1 2 2 2 2 2 3 4 6 7 6 5
8 6 5 5 5 3 2 2 1 1 2 2 2 2 1 0 1 1 0 1 1 1 1 2 1 1 1 1 2 0 1 1 2 2 2 1 2 2 3 4 4 4 5
8 7 6 5 4 3 2 2 2 1 1 2 2 3 2 1 1 1 1 1 1 1 1 2 2 1 1 0 1 1 0 1 1 2 1 1 2 2 2 3 3 2 3
9 8 6 5 5 4 3 2 2 2 2 2 2 3 2 1 0 0 1 1 1 1 1 1 1 1 2 1 1 0 0 0 1 1 1 1 1 1 1 2 2 2 2
10 9 7 6 6 4 4 2 2 2 1 1 2 2 2 1 1 1 1 1 1 1 1 1 1 1 1 2 1 0 0 0 1 1 1 1 1 1 1 1 2 2 2
11 10 8 7 6 5 4 3 3 2 2 2 2 2 2 2 1 1 1 0 1 1 1 1 1 1 1 2 1 1 1 1 1 0 1 1 1 1 1 1 2 2 2
11 11 9 8 6 5 4 3 2 2 1 1 2 3 3 2 1 1 1 0 0 1 1 1 1 1 1 2 2 1 1 0 1 1 1 0 1 1 1 2 2 2 3
11 10 11 9 7 6 5 4 3 2 1 1 1 1 2 2 2 2 2 1 1 0 1 1 1 1 1 2 2 2 1 1 1 1 1 1 0 1 2 1 2 2 2
Wind_Direction
68 68 69 66 65 69 71 72 73 78 78 77 79 83 89 92 95 97 100 99 99 98 97 97 97 96 97 99 102 104 108 111 113 114 113 112 110 107 108 112 114 108 110
85 79 75 71 69 71 73 74 75 79 80 80 80 85 89 92 95 97 98 99 100 100 99 98 98 98 99 102 106 109 112 116 120 122 119 114 111 107 105 105 103 109 112
89 92 85 79 77 74 75 76 77 80 81 81 81 84 88 93 96 97 98 99 100 101 101 99 99 100 100 103 107 114 120 125 130 134 133 122 113 107 104 105 109 116 117
94 90 90 90 84 80 79 80 80 82 83 84 85 86 87 93 97 98 98 99 99 99 100 101 101 101 102 105 109 115 123 132 143 156 147 127 119 114 112 113 117 120 123
98 96 97 96 90 87 83 80 83 84 85 86 88 89 89 91 95 96 97 98 99 99 100 102 103 104 105 110 114 118 130 149 173 172 116 114 110 123 123 122 124 125 126
102 101 103 102 97 92 88 84 84 85 86 89 91 91 91 92 93 97 99 100 100 100 101 103 104 107 110 113 117 122 141 190 219 142 129 117 116 129 129 131 132 132 133
104 105 107 110 106 101 97 92 87 86 88 91 92 93 94 95 96 98 101 104 104 104 105 107 109 110 112 114 119 130 171 250 217 125 111 107 118 130 132 134 136 138 139
105 105 112 115 113 109 105 99 92 90 94 90 91 93 96 98 99 102 103 105 107 108 110 113 115 116 118 123 135 167 293 294 134 122 109 109 126 136 138 140 142 144 147
103 112 119 121 118 113 109 106 100 95 95 94 96 100 105 108 110 112 113 113 114 116 120 124 128 129 136 151 185 232 258 284 304 128 119 120 132 136 139 144 146 148 152
103 107 117 121 125 128 122 119 115 110 109 108 108 111 116 121 127 128 126 123 125 128 134 141 147 155 171 190 217 235 246 272 222 128 113 126 138 140 143 146 151 155 160
99 106 111 117 130 127 128 131 134 130 132 134 135 140 148 151 132 136 117 130 137 145 154 164 173 182 193 212 224 235 246 239 168 117 113 131 140 140 143 148 154 162 172
107 106 103 104 115 115 113 127 135 133 141 146 118 140 154 92 98 108 125 142 153 166 180 196 202 202 209 209 209 220 229 216 144 113 115 134 139 142 146 151 157 167 179
115 110 107 96 86 97 111 123 120 116 132 129 118 118 112 109 115 111 142 153 174 188 198 189 205 213 209 200 188 194 212 198 122 114 131 143 144 147 149 153 163 176 185
111 106 101 99 80 65 74 108 134 131 130 117 117 103 91 77 77 108 149 171 183 172 184 182 200 196 213 207 196 195 171 137 117 116 137 145 150 153 154 158 167 177 181
118 110 103 103 94 79 58 22 94 100 114 115 96 77 61 69 58 62 48 14 62 117 157 230 343 152 229 319 311 62 76 93 108 125 135 148 149 154 158 164 171 181 189
129 115 114 115 109 102 102 50 78 90 100 88 86 76 56 60 46 43 48 12 37 55 57 85 280 279 281 90 23 54 33 79 112 127 138 153 154 158 161 169 173 181 191
134 122 128 128 120 122 118 88 102 95 102 97 90 78 47 51 38 35 22 21 22 35 99 100 340 277 244 196 164 157 114 101 120 121 138 153 163 169 170 171 175 184 193
132 131 145 135 129 131 122 74 73 78 86 89 96 91 66 35 20 15 17 23 349 353 41 138 105 347 5 346 268 215 152 160 157 150 159 163 166 170 176 175 176 187 189
137 139 146 122 134 142 144 148 124 97 92 92 93 97 104 48 50 25 30 8 331 5 359 0 62 20 353 347 270 213 171 163 156 167 162 158 166 160 160 171 178 180 183
144 144 148 140 138 145 153 154 158 125 125 121 110 108 117 101 65 10 80 344 341 18 17 20 17 343 283 288 300 19 147 162 158 137 154 143 140 151 155 151 165 184 183
149 152 155 153 146 156 169 167 163 147 169 140 137 127 125 92 79 45 15 332 351 30 10 15 9 336 317 298 317 339 262 164 152 143 137 110 99 97 108 122 137 157 166
157 160 158 158 160 174 167 168 176 165 176 146 126 127 133 115 27 159 52 334 18 19 15 8 356 332 315 313 295 354 341 35 22 90 114 137 120 106 99 96 110 119 122
164 165 168 166 165 176 170 178 181 163 167 142 139 141 139 146 159 19 74 351 351 350 10 332 323 303 304 306 319 268 269 256 53 42 49 77 83 97 101 93 89 101 114
168 167 161 158 162 164 171 188 189 181 180 175 160 146 151 163 176 135 115 33 346 7 13 295 28 313 304 311 315 266 221 156 184 87 7 44 74 81 88 83 84 84 88
170 166 161 158 161 166 180 191 205 196 193 160 144 153 161 173 190 160 143 132 305 335 335 345 2 338 331 323 309 306 311 281 234 193 211 309 18 38 82 86 86 76 76
171 168 163 159 164 170 180 186 198 212 202 161 164 170 187 171 171 171 155 151 188 261 292 312 307 308 319 314 308 311 299 281 258 212 199 185 109 24 34 58 91 98 95